This is the latest recevied weather packets stored in our database for station/object WA1TYB-13. If no packets are shown the sender has not sent any weather packets the latest 10 day(s).
| Time | Temp. | Humidity | Pressure | Rain* | Wind** | Luminosity | Snow |
|---|---|---|---|---|---|---|---|
| 1787952443 | 29.44° C | 20% | 1015.4 hPa | 0 mm | - | 445 W/m² | - |
| 1787952140 | 28.89° C | 21% | 1015.6 hPa | 0 mm | - | 534 W/m² | - |
| 1787951838 | 28.89° C | 21% | 1015.6 hPa | 0 mm | - | 298 W/m² | - |
| 1787951534 | 28.89° C | 22% | 1015.4 hPa | 0 mm | - | 637 W/m² | - |
| 1787951230 | 28.89° C | 22% | 1015.6 hPa | 0 mm | - | 419 W/m² | - |
| 1787950926 | 28.33° C | 22% | 1015.7 hPa | 0 mm | - | 619 W/m² | - |
| 1787950621 | 28.33° C | 26% | 1015.3 hPa | 0 mm | - | 668 W/m² | - |
| 1787950317 | 28.33° C | 25% | 1015.7 hPa | 0 mm | - | 656 W/m² | - |
| 1787950012 | 28.33° C | 22% | 1015.8 hPa | 0 mm | - | 645 W/m² | - |
| 1787949708 | 27.78° C | 26% | 1016.1 hPa | 0 mm | - | 588 W/m² | - |
| 1787949407 | 27.78° C | 28% | 1015.9 hPa | 0 mm | - | 385 W/m² | - |
| 1787949102 | 27.78° C | 28% | 1016.1 hPa | 0 mm | - | 594 W/m² | - |
| 1787948799 | 27.22° C | 27% | 1016.1 hPa | 0 mm | - | 555 W/m² | - |
| 1787948498 | 26.67° C | 32% | 1016.1 hPa | 0 mm | - | 324 W/m² | - |
| 1787948194 | 26.11° C | 30% | 1016.3 hPa | 0 mm | - | 266 W/m² | - |
| 1787947892 | 26.67° C | 31% | 1016.3 hPa | 0 mm | - | 274 W/m² | - |
| 1787947587 | 26.67° C | 28% | 1016.3 hPa | 0 mm | - | 314 W/m² | - |
| 1787947281 | 26.11° C | 34% | 1016.3 hPa | 0 mm | - | 422 W/m² | - |
| 1787946980 | 26.11° C | 36% | 1016.7 hPa | 0 mm | - | 583 W/m² | - |
| 1787946678 | 25.56° C | 37% | 1016.6 hPa | 0 mm | - | 551 W/m² | - |
| 1787946373 | 25.56° C | 36% | 1016.7 hPa | 0 mm | - | 307 W/m² | - |
| 1787946068 | 25° C | 38% | 1017 hPa | 0 mm | - | 456 W/m² | - |
| 1787945763 | 25° C | 38% | 1017 hPa | 0 mm | - | 323 W/m² | - |
| 1787945458 | 25° C | 41% | 1016.8 hPa | 0 mm | - | 345 W/m² | - |
| 1787945154 | 25° C | 39% | 1016.8 hPa | 0 mm | - | 475 W/m² | - |
* Rain latest hour (hover to see other rain measurements)
** Current wind speed in m/s (hover to see current wind gust speed)